Bookmark and Share
Track history (hours):
 

MV Scf Alpine

Last reported at 2014-Apr-23 19:08 UTC. Time now 2014-Apr-24 02:22 UTC.
Position N 38°17' E 025°24'.

Length 229 m; draft 8.1 m.

Type: Tanker. MMSI: 636014957.

NotesDate/timePositionNaut miles runAvg speedWind from/ knotsBaromVisibWave heightAir tempDewpointWater temp
2014-Apr-23 19:08N 38°17' E 025°24'813.1
2014-Apr-23 18:33N 38°10' E 025°27'1313.2
2014-Apr-23 17:33N 37°57' E 025°32'1413.7
2014-Apr-23 16:33N 37°44' E 025°36'1414.0
2014-Apr-23 15:33N 37°30' E 025°40'1111.1
2014-Apr-23 14:34N 37°20' E 025°36'1313.1
2014-Apr-23 13:33N 37°17' E 025°20'1312.7
2014-Apr-23 12:32N 37°15' E 025°04'1212.4
2014-Apr-23 11:33N 37°11' E 024°50'1313.0
2014-Apr-23 10:33N 37°05' E 024°35'1312.7
2014-Apr-23 09:33N 36°59' E 024°21'1312.7
2014-Apr-23 08:33N 36°52' E 024°07'1412.9
2014-Apr-23 07:28N 36°39' E 024°00'1314.1
2014-Apr-23 06:33N 36°28' E 023°53'1313.3
2014-Apr-23 05:33N 36°16' E 023°46'1313.2
2014-Apr-23 04:33N 36°04' E 023°39'1212.0
2014-Apr-23 03:33N 36°01' E 023°25'1313.1
2014-Apr-23 02:33N 36°02' E 023°09'36413.2
2014-Apr-21 23:03N 36°17' E 015°38'714.0
2014-Apr-21 22:34N 36°17' E 015°30'1413.8
2014-Apr-21 21:31N 36°17' E 015°12'1313.6
2014-Apr-21 20:33N 36°18' E 014°56'1413.6
2014-Apr-21 19:33N 36°19' E 014°39'1312.8
2014-Apr-21 18:33N 36°22' E 014°23'1313.3
2014-Apr-21 17:33N 36°30' E 014°10'1413.7
2014-Apr-21 16:33N 36°38' E 013°56'1313.4
2014-Apr-21 15:33N 36°45' E 013°42'1413.7
2014-Apr-21 14:33N 36°53' E 013°28'1413.7
2014-Apr-21 13:33N 37°01' E 013°14'18713.3
2014-Apr-20 23:31N 38°19' E 009°39'1413.6
2014-Apr-20 22:31N 38°22' E 009°23'1313.4
2014-Apr-20 21:33N 38°26' E 009°07'1413.1
2014-Apr-20 20:31N 38°29' E 008°50'1212.9
2014-Apr-20 19:33N 38°32' E 008°35'1713.0
2014-Apr-20 18:16N 38°36' E 008°14'1013.1
2014-Apr-20 17:32N 38°38' E 008°02'66 1.9
2014-Apr-19 06:13N 39°28' E 007°05'9513.6
2014-Apr-18 23:12N 40°55' E 006°17'913.0
2014-Apr-18 22:32N 41°03' E 006°13'1413.7
2014-Apr-18 21:33N 41°16' E 006°06'1312.7
2014-Apr-18 20:33N 41°28' E 005°60'1313.3
2014-Apr-18 19:33N 41°40' E 005°53'1313.2
2014-Apr-18 18:33N 41°52' E 005°46'1413.6
2014-Apr-18 17:33N 42°05' E 005°39'1413.8
2014-Apr-18 16:33N 42°17' E 005°31'1413.7
2014-Apr-18 15:33N 42°28' E 005°19'1110.5
2014-Apr-18 14:32N 42°35' E 005°09'2 1.5
2014-Apr-18 13:32N 42°37' E 005°08'1 1.5
2014-Apr-18 12:32N 42°38' E 005°08'2 1.8
2014-Apr-18 11:15N 42°40' E 005°08'1 1.7
2014-Apr-18 10:33N 42°42' E 005°08'2 1.8
2014-Apr-18 09:31N 42°43' E 005°09'2 1.7
2014-Apr-18 08:33N 42°45' E 005°10'2 1.8
2014-Apr-18 07:33N 42°47' E 005°11'1 1.5
2014-Apr-18 06:33N 42°48' E 005°12'1 1.5
2014-Apr-18 05:33N 42°49' E 005°13'7 7.0
2014-Apr-18 04:33N 42°53' E 005°05'2 2.1
2014-Apr-18 03:33N 42°55' E 005°04'2 1.8
2014-Apr-18 02:32N 42°56' E 005°05'2 1.6
2014-Apr-18 01:33N 42°58' E 005°06'9 8.9
2014-Apr-18 00:33N 43°06' E 005°03'1413.8
2014-Apr-17 23:34N 43°20' E 004°58'6 6.1
2014-Apr-17 22:34N 43°25' E 004°53'  
2014-Apr-14 22:34N 43°24' E 004°54'6 5.6
2014-Apr-14 21:34N 43°20' E 004°59'8 8.0
2014-Apr-14 20:34N 43°13' E 005°02'1212.2
2014-Apr-14 19:34N 43°02' E 004°55'1312.8
2014-Apr-14 18:34N 42°51' E 004°46'1212.5
2014-Apr-14 17:34N 42°40' E 004°38'1312.9
2014-Apr-14 16:34N 42°29' E 004°29'1413.4
2014-Apr-14 15:32N 42°17' E 004°20'1313.1
2014-Apr-14 14:33N 42°05' E 004°12'1313.1
2014-Apr-14 13:33N 41°54' E 004°03'2613.1
2014-Apr-14 11:33N 41°33' E 003°42'1312.8
2014-Apr-14 10:33N 41°23' E 003°31'1212.4
2014-Apr-14 09:33N 41°14' E 003°20'1313.1
2014-Apr-14 08:33N 41°05' E 003°08'2613.0
2014-Apr-14 06:33N 40°46' E 002°44'1413.8
2014-Apr-14 05:33N 40°36' E 002°32'10314.7
2014-Apr-13 22:33N 39°20' E 001°01'1313.0
2014-Apr-13 21:33N 39°11' E 000°50'2712.8
2014-Apr-13 19:27N 38°45' E 000°40'  

Dump ship's entire track history

sailing weather and tide predictions

MV Scf Alpine — A8XQ2 — position and weather